sat.trackr.live / text

‹ back to catalog

STARLINK-30703

NORAD 57954 · 2023-148V

PAYLOAD ACTIVE UNKNOWN

§ Identity

Operator
Country
US
Launch date
2023-09-25
Launch site
AFWTR
Launch vehicle
Mass (kg)
RCS (m²)

Purposes: comms

External: N2YO · Heavens-Above · Gunter

§ Orbital elements

Epoch: 2026-05-25T00:24:41.787648Z

Period
93.85 min
Inclination
53.1614°
Eccentricity
0.0001185
Mean motion
15.34389958 rev/d
Perigee alt
461.9 km
Apogee alt
463.5 km
Semi-major
6,840.9 km
B*
4.2446e-5
RAAN
19.3036°
Arg perigee
87.6816°
Mean anomaly
272.4322°
Rev number
15,025

§ Raw data

STARLINK-307031 57954U 23148V   26145.01715032  .00001058  00000+0  42446-4 0  99922 57954  53.1614  19.3036 0001185  87.6816 272.4322 15.34389958150255

JSON: /api/v1/satellites/57954 · /tle

For live sub-satellite position, see the globe view (requires WebGL).

§ Visibility from observer

Set your observer location to see the next 7 days of passes ≥ 10°. The values pass through the URL so the page stays shareable.

No JS? Fill the form by hand. The geolocation button needs JavaScript.